Radiation Dose at Monitoring Post of Fukushima Daini Nuclear Power Station
Date,Time,MP-1(microSv/h),MP-2(microSv/h),MP-3(microSv/h),MP-4(microSv/h),MP-5(microSv/h),MP-6(microSv/h),MP-7(microSv/h),Wind Direction,Wind Velocity(m/s),Rain
2020/03/05,00:00,0.174,0.162,0.260,0.241,0.246,0.135,0.084,north-northwest,2.4,Yes
2020/03/05,00:10,0.176,0.163,0.260,0.242,0.250,0.136,0.084,north,2.3,Yes
2020/03/05,00:20,0.176,0.164,0.261,0.240,0.249,0.137,0.086,north,2.0,Yes
2020/03/05,00:30,0.177,0.162,0.262,0.243,0.249,0.138,0.086,north-northeast,1.8,No
2020/03/05,00:40,0.177,0.165,0.262,0.242,0.251,0.137,0.087,north,1.6,No
2020/03/05,00:50,0.177,0.164,0.261,0.242,0.250,0.138,0.087,north,0.8,No
2020/03/05,01:00,0.178,0.165,0.262,0.243,0.250,0.138,0.086,north-northeast,1.4,Yes
2020/03/05,01:10,0.178,0.164,0.262,0.243,0.251,0.140,0.087,north,2.3,Yes
2020/03/05,01:20,0.179,0.165,0.262,0.243,0.251,0.140,0.087,north,2.8,Yes
2020/03/05,01:30,0.179,0.165,0.261,0.244,0.251,0.140,0.088,north-northwest,3.2,Yes
2020/03/05,01:40,0.179,0.167,0.265,0.245,0.251,0.140,0.089,north,3.5,Yes
2020/03/05,01:50,0.178,0.167,0.263,0.245,0.253,0.141,0.090,north,3.8,Yes
2020/03/05,02:00,0.179,0.166,0.263,0.244,0.252,0.141,0.090,north,4.3,Yes
2020/03/05,02:10,0.180,0.166,0.262,0.245,0.253,0.141,0.090,north-northwest,4.9,Yes
2020/03/05,02:20,0.180,0.166,0.262,0.244,0.253,0.142,0.089,north-northwest,4.4,Yes
2020/03/05,02:30,0.179,0.167,0.265,0.245,0.252,0.141,0.089,north-northwest,5.0,Yes
2020/03/05,02:40,0.180,0.166,0.263,0.245,0.252,0.141,0.090,north-northwest,4.7,Yes
2020/03/05,02:50,0.180,0.166,0.263,0.245,0.252,0.141,0.090,north-northwest,4.5,Yes
2020/03/05,03:00,0.181,0.168,0.263,0.245,0.252,0.141,0.089,north,4.8,Yes
2020/03/05,03:10,0.181,0.167,0.264,0.245,0.251,0.141,0.089,north-northwest,5.5,Yes
2020/03/05,03:20,0.180,0.166,0.264,0.245,0.252,0.141,0.090,north-northwest,6.1,Yes
2020/03/05,03:30,0.180,0.167,0.263,0.244,0.251,0.141,0.089,north,5.8,Yes
2020/03/05,03:40,0.181,0.167,0.265,0.245,0.251,0.140,0.090,north,5.9,Yes
2020/03/05,03:50,0.180,0.166,0.263,0.243,0.251,0.140,0.089,north-northwest,5.5,Yes
2020/03/05,04:00,0.179,0.166,0.263,0.244,0.252,0.140,0.088,north-northwest,5.8,Yes
2020/03/05,04:10,0.179,0.166,0.262,0.242,0.251,0.140,0.088,north-northwest,5.7,No
2020/03/05,04:20,0.178,0.166,0.262,0.242,0.251,0.139,0.088,north-northwest,5.9,No
2020/03/05,04:30,0.177,0.164,0.262,0.243,0.250,0.138,0.087,north-northwest,5.1,No
2020/03/05,04:40,0.179,0.164,0.262,0.241,0.250,0.138,0.087,north-northwest,5.0,No
2020/03/05,04:50,0.176,0.164,0.260,0.242,0.249,0.138,0.086,north-northwest,4.5,No
2020/03/05,05:00,0.176,0.162,0.261,0.241,0.248,0.136,0.085,north-northwest,4.6,No
2020/03/05,05:10,0.176,0.163,0.259,0.242,0.248,0.136,0.085,north-northwest,4.0,No
2020/03/05,05:20,0.176,0.164,0.259,0.240,0.247,0.136,0.085,north,5.1,No
2020/03/05,05:30,0.175,0.163,0.260,0.240,0.248,0.136,0.085,north-northwest,5.6,No
2020/03/05,05:40,0.175,0.162,0.260,0.240,0.247,0.136,0.084,north-northwest,6.1,No
2020/03/05,05:50,0.176,0.162,0.260,0.240,0.249,0.136,0.084,north-northwest,6.2,No
2020/03/05,06:00,0.175,0.161,0.259,0.240,0.248,0.136,0.084,northwest,5.1,No
2020/03/05,06:10,0.174,0.162,0.260,0.240,0.248,0.136,0.084,west-northwest,5.9,No
2020/03/05,06:20,0.174,0.161,0.259,0.240,0.247,0.134,0.084,northwest,6.7,No
2020/03/05,06:30,0.175,0.162,0.258,0.240,0.247,0.134,0.084,northwest,7.4,No
2020/03/05,06:40,0.175,0.161,0.258,0.240,0.248,0.135,0.083,northwest,9.0,No
2020/03/05,06:50,0.173,0.160,0.259,0.239,0.247,0.134,0.083,northwest,7.6,No
2020/03/05,07:00,0.176,0.162,0.260,0.240,0.248,0.135,0.084,northwest,8.4,No
2020/03/05,07:10,0.175,0.162,0.259,0.239,0.248,0.135,0.083,northwest,7.8,No
2020/03/05,07:20,0.174,0.162,0.258,0.240,0.248,0.135,0.083,northwest,7.4,No
2020/03/05,07:30,0.175,0.161,0.259,0.240,0.248,0.135,0.083,west-northwest,6.7,No
2020/03/05,07:40,0.175,0.161,0.261,0.241,0.249,0.136,0.084,northwest,7.6,No
2020/03/05,07:50,0.176,0.161,0.260,0.240,0.246,0.134,0.083,north-northwest,7.8,No
2020/03/05,08:00,0.175,0.162,0.259,0.239,0.248,0.136,0.084,north-northwest,8.1,No
2020/03/05,08:10,0.175,0.161,0.260,0.238,0.248,0.134,0.083,north-northwest,7.8,No
2020/03/05,08:20,0.176,0.162,0.260,0.239,0.248,0.135,0.083,northwest,5.9,No
2020/03/05,08:30,0.175,0.162,0.260,0.240,0.247,0.135,0.084,northwest,8.1,No
2020/03/05,08:40,0.175,0.162,0.261,0.240,0.248,0.135,0.084,west-northwest,11.2,No
2020/03/05,08:50,0.176,0.162,0.261,0.240,0.247,0.135,0.084,west-northwest,13.1,No
2020/03/05,09:00,0.175,0.162,0.259,0.240,0.247,0.136,0.083,west-northwest,10.1,No
2020/03/05,09:10,0.174,0.162,0.259,0.240,0.248,0.135,0.084,west,10.7,No
2020/03/05,09:20,0.174,0.162,0.260,0.240,0.248,0.135,0.084,west-northwest,15.3,No
2020/03/05,09:30,0.175,0.161,0.260,0.240,0.248,0.135,0.083,west,13.7,No
2020/03/05,09:40,0.176,0.162,0.260,0.241,0.249,0.136,0.084,west,15.8,No
2020/03/05,09:50,0.174,0.161,0.262,0.241,0.249,0.136,0.083,west-northwest,11.7,No
2020/03/05,10:00,0.175,0.163,0.261,0.241,0.248,0.136,0.083,west-northwest,14.2,No
2020/03/05,10:10,0.176,0.161,0.261,0.240,0.248,0.136,0.083,west,12.0,No
2020/03/05,10:20,0.175,0.162,0.262,0.242,0.249,0.136,0.083,west-northwest,10.6,No
2020/03/05,10:30,0.175,0.162,0.252,0.241,0.248,0.136,0.084,west,17.1,No
2020/03/05,10:40,0.176,0.161,0.243,0.241,0.248,0.136,0.084,west,13.4,No
2020/03/05,10:50,0.176,0.162,0.245,0.241,0.249,0.136,0.084,west,18.0,No
2020/03/05,11:00,0.176,0.162,0.258,0.242,0.248,0.135,0.083,-,CALM,No
2020/03/05,11:10,0.175,0.162,0.260,0.241,0.247,0.136,0.084,west,17.7,No
2020/03/05,11:20,0.177,0.162,0.260,0.241,0.249,0.137,0.083,west,16.9,No
2020/03/05,11:30,0.176,0.160,0.259,0.242,0.248,0.137,0.083,west,20.3,No
2020/03/05,11:40,0.175,0.163,0.259,0.240,0.248,0.137,0.084,west-northwest,14.9,No
2020/03/05,11:50,0.176,0.162,0.263,0.241,0.248,0.135,0.084,west,19.7,No
2020/03/05,12:00,0.175,0.162,0.261,0.241,0.249,0.135,0.083,west,20.2,No
2020/03/05,12:10,0.176,0.161,0.259,0.242,0.250,0.135,0.083,west-northwest,17.2,No
2020/03/05,12:20,0.175,0.161,0.259,0.243,0.247,0.136,0.083,west-northwest,22.9,No
2020/03/05,12:30,0.175,0.161,0.258,0.241,0.248,0.137,0.083,west,27.3,No
2020/03/05,12:40,0.176,0.162,0.258,0.242,0.249,0.135,0.084,west,20.7,No
2020/03/05,12:50,0.176,0.162,0.262,0.242,0.249,0.137,0.084,west-northwest,20.4,No
2020/03/05,13:00,0.177,0.162,0.261,0.241,0.249,0.137,0.083,west-northwest,19.9,No
2020/03/05,13:10,0.177,0.162,0.261,0.244,0.250,0.137,0.083,west,16.5,No
2020/03/05,13:20,0.177,0.162,0.263,0.243,0.249,0.136,0.084,west-northwest,16.2,No
2020/03/05,13:30,0.176,0.162,0.263,0.241,0.250,0.137,0.083,west,14.2,No
2020/03/05,13:40,0.178,0.162,0.263,0.243,0.248,0.137,0.083,west-northwest,12.0,No
2020/03/05,13:50,0.177,0.163,0.263,0.243,0.250,0.136,0.083,west-northwest,10.6,No
2020/03/05,14:00,0.176,0.162,0.263,0.243,0.248,0.137,0.084,west-northwest,14.0,No
2020/03/05,14:10,0.178,0.161,0.263,0.242,0.251,0.137,0.083,west,10.6,No
2020/03/05,14:20,0.177,0.163,0.263,0.243,0.249,0.137,0.084,west,12.6,No
2020/03/05,14:30,0.178,0.163,0.264,0.243,0.248,0.137,0.083,west,12.9,No
2020/03/05,14:40,0.178,0.162,0.265,0.244,0.251,0.137,0.083,west-northwest,10.9,No
2020/03/05,14:50,0.178,0.162,0.262,0.242,0.250,0.137,0.083,west-northwest,12.6,No
2020/03/05,15:00,0.178,0.163,0.262,0.243,0.250,0.136,0.084,west-northwest,11.1,No
2020/03/05,15:10,0.178,0.163,0.263,0.244,0.251,0.137,0.083,west,11.5,No
2020/03/05,15:20,0.176,0.163,0.264,0.244,0.249,0.137,0.084,west,17.4,No
2020/03/05,15:30,0.177,0.163,0.263,0.244,0.251,0.136,0.084,west,10.1,No
2020/03/05,15:40,0.177,0.162,0.263,0.245,0.252,0.138,0.084,west,9.3,No
2020/03/05,15:50,0.177,0.162,0.262,0.242,0.248,0.137,0.083,west,11.4,No
2020/03/05,16:00,0.177,0.163,0.264,0.243,0.251,0.137,0.084,west,12.3,No
2020/03/05,16:10,0.178,0.163,0.262,0.244,0.251,0.138,0.083,west,9.8,No
2020/03/05,16:20,0.177,0.163,0.262,0.244,0.250,0.137,0.083,west-northwest,8.6,No
2020/03/05,16:30,0.177,0.163,0.261,0.244,0.250,0.137,0.084,west-northwest,8.1,No
2020/03/05,16:40,0.178,0.163,0.262,0.243,0.251,0.137,0.082,west,10.0,No
2020/03/05,16:50,0.177,0.163,0.263,0.243,0.250,0.137,0.084,west,10.4,No
2020/03/05,17:00,0.177,0.163,0.262,0.243,0.250,0.136,0.084,west-northwest,11.2,No
2020/03/05,17:10,0.177,0.162,0.263,0.244,0.251,0.138,0.083,west-northwest,9.2,No
2020/03/05,17:20,0.178,0.163,0.262,0.245,0.249,0.138,0.083,west-northwest,11.1,No
2020/03/05,17:30,0.178,0.162,0.262,0.242,0.250,0.137,0.083,west,10.4,No
2020/03/05,17:40,0.177,0.163,0.263,0.244,0.250,0.137,0.083,west,13.3,No
2020/03/05,17:50,0.178,0.163,0.263,0.244,0.250,0.137,0.083,west-northwest,10.4,No
2020/03/05,18:00,0.178,0.164,0.264,0.245,0.250,0.138,0.084,west,9.5,No
2020/03/05,18:10,0.179,0.164,0.264,0.244,0.250,0.137,0.084,west-northwest,7.9,No
2020/03/05,18:20,0.178,0.163,0.264,0.245,0.250,0.137,0.084,west,8.2,No
2020/03/05,18:30,0.178,0.164,0.264,0.244,0.250,0.137,0.085,west-northwest,6.6,No
2020/03/05,18:40,0.178,0.163,0.265,0.244,0.251,0.137,0.084,west-northwest,8.4,No
2020/03/05,18:50,0.178,0.163,0.263,0.245,0.250,0.137,0.084,west,6.8,No
2020/03/05,19:00,0.177,0.164,0.263,0.244,0.250,0.138,0.083,west,6.9,No
2020/03/05,19:10,0.177,0.165,0.263,0.245,0.251,0.139,0.084,west-southwest,8.2,No
2020/03/05,19:20,0.177,0.163,0.263,0.243,0.251,0.137,0.083,west,6.8,No
2020/03/05,19:30,0.178,0.164,0.264,0.244,0.249,0.138,0.084,west,7.6,No
2020/03/05,19:40,0.178,0.163,0.264,0.244,0.250,0.137,0.084,west,8.8,No
2020/03/05,19:50,0.177,0.164,0.263,0.245,0.251,0.137,0.084,west,11.2,No
2020/03/05,20:00,0.178,0.163,0.262,0.245,0.250,0.137,0.085,west,11.4,No
2020/03/05,20:10,0.178,0.163,0.262,0.245,0.250,0.138,0.084,west,12.0,No
2020/03/05,20:20,0.179,0.163,0.263,0.244,0.250,0.138,0.084,west,12.0,No
2020/03/05,20:30,0.178,0.163,0.264,0.246,0.249,0.137,0.084,west,10.0,No
2020/03/05,20:40,0.178,0.163,0.264,0.245,0.250,0.139,0.084,west,10.4,No
2020/03/05,20:50,0.178,0.164,0.263,0.245,0.251,0.138,0.084,west,8.6,No
2020/03/05,21:00,0.178,0.163,0.264,0.245,0.250,0.139,0.084,west,11.2,No
2020/03/05,21:10,0.180,0.164,0.264,0.245,0.251,0.138,0.084,west,9.8,No
2020/03/05,21:20,0.178,0.162,0.263,0.246,0.250,0.137,0.084,west,9.5,No
2020/03/05,21:30,0.178,0.164,0.264,0.246,0.251,0.139,0.084,west,8.9,No
2020/03/05,21:40,0.178,0.164,0.263,0.246,0.251,0.139,0.084,west,7.9,No
2020/03/05,21:50,0.178,0.163,0.264,0.245,0.250,0.137,0.084,west,7.3,No
2020/03/05,22:00,0.179,0.163,0.263,0.245,0.250,0.137,0.084,west,10.1,No
2020/03/05,22:10,0.178,0.163,0.265,0.245,0.250,0.138,0.084,west,6.8,No
2020/03/05,22:20,0.178,0.165,0.263,0.245,0.251,0.137,0.084,west,7.7,No
2020/03/05,22:30,0.178,0.164,0.263,0.246,0.250,0.138,0.084,west,8.1,No
2020/03/05,22:40,0.178,0.163,0.263,0.246,0.251,0.138,0.084,west-northwest,6.6,No
2020/03/05,22:50,0.178,0.163,0.264,0.244,0.250,0.138,0.083,west,7.1,No
2020/03/05,23:00,0.178,0.163,0.264,0.244,0.250,0.138,0.084,west,6.6,No
2020/03/05,23:10,0.178,0.163,0.263,0.245,0.251,0.137,0.084,west-northwest,8.8,No
2020/03/05,23:20,0.178,0.164,0.264,0.245,0.249,0.138,0.084,west,10.1,No
2020/03/05,23:30,0.179,0.163,0.262,0.245,0.249,0.137,0.084,west-northwest,9.8,No
2020/03/05,23:40,0.179,0.163,0.263,0.245,0.250,0.138,0.084,west-northwest,10.1,No
2020/03/05,23:50,0.178,0.163,0.264,0.246,0.251,0.138,0.084,west-northwest,10.1,No
